Flag for United Kingdom Weather past 2 weeks in Plymouth, England, United Kingdom

Now
57 °F

Passing clouds.


Feels Like: 55 °F
Forecast: 45 / 65 °F
Wind: 10 mph from Northeast

Location: Exeter Airport

Current Time: Sep 21, 2014 at 9:44:30 AM

Latest Report: Sep 21, 2014 at 9:20 AM


Visibility: N/A

Pressure: 30.24 "Hg

Humidity: 77%

Dew point: 50 °F

Location of PlymouthLocation

Historic Weather in Plymouth — Graph

°F

Plymouth temperature yesterday

Maximum temperature yesterday: 66 °F (at 12:20 PM)
Minimum temperature yesterday: 55 °F (at 2:50 AM)
Average temperature yesterday: 62 °F

Past Weeks' High & Low Weather Summary

 TemperatureHumidityPressure
High73 °F (Sep 16, 1:50 PM)100% (Sep 6, 8:50 AM)30.30 "Hg (Sep 6, 8:50 AM)
Low46 °F (Sep 8, 7:20 AM)50% (Sep 9, 3:20 PM)29.74 "Hg (Sep 18, 6:20 AM)
Average61 °F81%30.03 "Hg
* Reported Sep 6 8:20 AM — Sep 21 8:50 AM, Plymouth, Weather by CustomWeather, © 2014

Note: Actual official high and low records may vary slightly from our data, if they occured in-between our weather recording intervals... More about our weather records

Advertising

Plymouth weather history for previous 24 hours

 ConditionsComfort  
Time TempWeatherWind HumidityBarometerVisibility
8:50 AM
Sep 21
55 °FPassing clouds.10 mph88%30.24 "HgN/A
8:20 AM57 °FPassing clouds.12 mph82%30.21 "HgN/A
7:50 AM57 °FPassing clouds.7 mph88%30.21 "HgN/A
7:20 AM57 °FPassing clouds.5 mph88%30.21 "HgN/A
6:50 AM59 °FPassing clouds.7 mph88%30.18 "Hg4 mi
6:20 AM59 °FPassing clouds.6 mph88%30.18 "HgN/A
2:20 AM61 °FPassing clouds.2 mph88%30.15 "Hg5 mi
1:50 AM61 °FPassing clouds.3 mph88%30.15 "Hg5 mi
12:20 AM61 °FPassing clouds.3 mph94%30.12 "Hg5 mi
11:50 PM
Sep 20
63 °FPassing clouds.3 mph88%30.12 "Hg5 mi
11:20 PM63 °FPassing clouds.3 mph88%30.12 "Hg5 mi
10:50 PM63 °FPassing clouds.2 mph88%30.12 "Hg5 mi
10:20 PM63 °FPassing clouds.3 mph88%30.09 "Hg5 mi
9:20 PM63 °FPassing clouds.2 mph88%30.09 "Hg5 mi
8:50 PM63 °FPassing clouds.3 mph88%30.09 "Hg5 mi
8:20 PM63 °FPassing clouds.2 mph88%30.07 "Hg4 mi
7:50 PM63 °FPassing clouds.5 mph88%30.07 "Hg4 mi
7:20 PM64 °FPassing clouds.5 mph83%30.07 "Hg5 mi
6:50 PM64 °FPassing clouds.6 mph83%30.04 "Hg6 mi
2:20 PM66 °FFog.7 mph83%30.01 "Hg3 mi
1:50 PM66 °FFog.6 mph83%30.01 "Hg3 mi
1:20 PM66 °FFog.6 mph83%30.01 "Hg3 mi
12:50 PM66 °FFog.8 mph83%30.01 "Hg3 mi
12:20 PM66 °FFog.6 mph83%30.01 "Hg3 mi
11:20 AM64 °FFog.7 mph88%30.01 "Hg2 mi
10:50 AM64 °FFog.5 mph94%30.01 "Hg2 mi
10:20 AM63 °FFog.6 mph94%30.01 "Hg2 mi
9:50 AM63 °FFog.7 mph94%29.98 "Hg2 mi
9:20 AM61 °FFog.6 mph100%29.98 "Hg2 mi
Weather by CustomWeather, © 2014

See weather overviewHow to use our weather pages